Regional Weather Roundup
Issued by NWS

Home | Current Version | Previous Version | Graphics & Text | Print | Product List | Glossary On
Versions: 1 2 3 4 5 6 7 8 9 10 11 12 13 14 15 16 17 18 19 20 21 22 23 24 25 26 27 28 29 30 31 32 33 34 35 36 37 38 39 40 41 42 43 44 45 46 47 48 49 50
000
ASUS43 KDTX 231201
RWRMI
MICHIGAN HOURLY REGIONAL WEATHER ROUNDUP
NATIONAL WEATHER SERVICE DETROIT/PONTIAC MI
800 AM EDT SAT JUL 23 2016

NOTE: "FAIR" INDICATES FEW OR NO CLOUDS BELOW 12,000 FEET WITH NO
SIGNIFICANT WEATHER AND/OR OBSTRUCTION TO VISIBILITY.

MIZ047>049-052>055-059>063-066>070-074>076-081>083-231300-
SOUTHEAST LOWER MICHIGAN

CITY           SKY/WX    TMP DP  RH WIND       PRES   REMARKS
ADRIAN         SUNNY     71  70  96 NW3       30.02R
6HR MIN TEMP:  66; 6HR MAX TEMP:  72;

ALMA           PTSUNNY   69  69 100 CALM      30.00S
ANN ARBOR      SUNNY     76  71  85 NW6       30.00R
BAD AXE        MOSUNNY   68  65  90 CALM      29.98R
CARO           CLOUDY    69  68  96 SW3       29.98R
DETROIT CITY   SUNNY     75  70  84 NW6       29.99R
6HR MIN TEMP:  73; 6HR MAX TEMP:  80;

DETROIT        MOSUNNY   76  68  76 NW7       29.99S
6HR MIN TEMP:  72; 6HR MAX TEMP:  78;

FLINT          MOSUNNY   73  68  84 W6        30.00S
6HR MIN TEMP:  66; 6HR MAX TEMP:  77;

GROSSE ILE     SUNNY     76  69  79 N3        29.98R
6HR MIN TEMP:  73; 6HR MAX TEMP:  77;

HOWELL         SUNNY     71  70  94 NW3       30.01R
6HR MIN TEMP:  68; 6HR MAX TEMP:  71;


CITY           SKY/WX    TMP DP  RH WIND       PRES   REMARKS
JACKSON        SUNNY     70  69  97 CALM      30.02R
6HR MIN TEMP:  66; 6HR MAX TEMP:  71;

LAMBERTVILLE   MOSUNNY   74  71  89 W3        30.00S
6HR MIN TEMP:  68; 6HR MAX TEMP:  75;

LANSING        SUNNY     71  67  87 W3        30.01S
6HR MIN TEMP:  66; 6HR MAX TEMP:  72;

LAPEER         FAIR      70  68  93 CALM      29.99F
6HR MIN TEMP:  61; 6HR MAX TEMP:  70;

MASON          SUNNY     69  68  97 NW3       30.01S
MONROE         SUNNY     73  72  94 NW3       29.99R
6HR MIN TEMP:  69; 6HR MAX TEMP:  73;

MT. CLEMENS    PTSUNNY   75  69  81 SW2       29.96R
6HR MIN TEMP:  70; 6HR MAX TEMP:  78;

PONTIAC        MOSUNNY   72  69  90 W3        29.99S
6HR MIN TEMP:  69; 6HR MAX TEMP:  75;

PORT HOPE        N/A     74  64  71 W6        29.95R
6HR MIN TEMP:  66; 6HR MAX TEMP:  74;

PORT HURON     SUNNY     70  70 100 CALM      29.97F
TRI CITIES     PTSUNNY   72  69  90 SW7       29.99S
6HR MIN TEMP:  68; 6HR MAX TEMP:  73;

MIDLAND        FAIR      70  67  89 CALM      29.98R
6HR MIN TEMP:  63; 6HR MAX TEMP:  70;

TROY           SUNNY     75  69  79 CALM      30.00F
SAGINAW HB     CLOUDY    72  68  88 SW5       29.98R
$$
MIZ043>046-050>051-056>058-064>065-071>073-077>080-231300-
SOUTHWEST LOWER MICHIGAN

CITY           SKY/WX    TMP DP  RH WIND       PRES   REMARKS
BATTLE CREEK   SUNNY     68  68 100 CALM      30.02R
6HR MIN TEMP:  63; 6HR MAX TEMP:  68; 6HR PCP: TRACE;

BENTON HARBOR  SUNNY     72  69  90 CALM      29.99R
6HR MIN TEMP:  67; 6HR MAX TEMP:  72;

BIG RAPIDS     MOSUNNY   67  67 100 CALM      30.00S
6HR MIN TEMP:  64; 6HR MAX TEMP:  67;

COLDWATER      FOG       67  67 100 CALM      30.02R VSB<1/4
6HR MIN TEMP:  64; 6HR MAX TEMP:  69;

FREMONT        FOG       66  66 100 CALM      30.00S VSB 1/4
HOLLAND        SUNNY     69  66  90 CALM      30.00S FOG
6HR MIN TEMP:  62; 6HR MAX TEMP:  69;

GRAND RAPIDS   MOSUNNY   70  66  87 CALM      30.01S FOG
6HR MIN TEMP:  65; 6HR MAX TEMP:  71;

IONIA          FAIR      67  65  94 CALM      30.00S FOG
6HR MIN TEMP:  64; 6HR MAX TEMP:  69;

KALAMAZOO      SUNNY     70  67  90 CALM      30.01R
6HR MIN TEMP:  64; 6HR MAX TEMP:  70;

LUDINGTON      MOSUNNY   69  68  99 CALM      29.98F
6HR MIN TEMP:  63; 6HR MAX TEMP:  73;

MARSHALL       SUNNY     68  67  98 CALM      30.02R
6HR MIN TEMP:  62; 6HR MAX TEMP:  69;

MOUNT PLEASANT CLOUDY    73  70  88 W5        29.99R
6HR MIN TEMP:  65; 6HR MAX TEMP:  73;

MUSKEGON       PTSUNNY   68  67  96 CALM      30.00R FOG
6HR MIN TEMP:  65; 6HR MAX TEMP:  69;

SOUTH HAVEN    FOG       68  67  98 CALM      30.00R VSB<1/4
$$
MIZ016>042-231300-
NORTHERN LOWER MICHIGAN

CITY           SKY/WX    TMP DP  RH WIND       PRES   REMARKS
ALPENA         SUNNY     70  62  76 NW6       29.98R
6HR MIN TEMP:  59; 6HR MAX TEMP:  70;

BEAVER ISLAND  SUNNY     66  66 100 CALM      29.98S
6HR MIN TEMP:  59; 6HR MAX TEMP:  66;

BELLAIRE       SUNNY     65  64  94 CALM      29.99R
6HR MIN TEMP:  59; 6HR MAX TEMP:  65;

CADILLAC       SUNNY     69  66  92 CALM      30.01S
CHARLEVOIX     SUNNY     67  65  93 CALM      30.01R
6HR MIN TEMP:  63; 6HR MAX TEMP:  68;

FRANKFORT      MOSUNNY   69  67  94 CALM      29.99S FOG
GAYLORD        SUNNY     68  62  81 W5        30.01R
6HR MIN TEMP:  61; 6HR MAX TEMP:  68;

GRAYLING       SUNNY     68  65  89 CALM      30.01R
6HR MIN TEMP:  57; 6HR MAX TEMP:  68;

HARBOR SPRINGS SUNNY     68  65  93 SW3       29.98R
HOUGHTON LAKE  SUNNY     67  63  87 CALM      30.02R
6HR MIN TEMP:  58; 6HR MAX TEMP:  67;

MANISTEE       MOSUNNY   66  65  96 E3        29.98S
OSCODA         SUNNY     71  62  73 W6        29.95R
6HR MIN TEMP:  65; 6HR MAX TEMP:  71;

PELLSTON       SUNNY     68  63  84 CALM      29.98R
6HR MIN TEMP:  57; 6HR MAX TEMP:  68;

ROGERS CITY    SUNNY     72  63  73 W6        29.98R
TRAVERSE CITY  MOSUNNY   73  69  87 CALM      29.97R
6HR MIN TEMP:  68; 6HR MAX TEMP:  75;

$$
MIZ007>008-015-231300-
EASTERN UPPER MICHIGAN

CITY           SKY/WX    TMP DP  RH WIND       PRES   REMARKS
KINROSS        SUNNY     67  59  75 W6        29.98R
6HR MIN TEMP:  60; 6HR MAX TEMP:  67;

MACKINAC ISLAN SUNNY     69  68  98 W7        29.98R
6HR MIN TEMP:  66; 6HR MAX TEMP:  69;

NEWBERRY       SUNNY     65  59  80 NW5       29.98S
6HR MIN TEMP:  59; 6HR MAX TEMP:  65;

S. S. MARIE    SUNNY     67  59  75 NW5       29.96S
6HR MIN TEMP:  61; 6HR MAX TEMP:  67;

$$
MIZ004>006-011>014-085-231300-
CENTRAL UPPER MICHIGAN

CITY           SKY/WX    TMP DP  RH WIND       PRES   REMARKS
MANISTIQUE     MOSUNNY   67  61  81 N7        29.97S
6HR MIN TEMP:  58; 6HR MAX TEMP:  67;

ESCANABA       MOSUNNY   66  57  72 NW3       29.97S
6HR MIN TEMP:  61; 6HR MAX TEMP:  66;

MENOMINEE      PTSUNNY   69  62  78 CALM      29.98F
6HR MIN TEMP:  66; 6HR MAX TEMP:  70;

SAWYER-GWINN   SUNNY     61  55  82 CALM      30.01R
$$
MIZ001>003-009>011-084-231300-
WESTERN UPPER MICHIGAN

CITY           SKY/WX    TMP DP  RH WIND       PRES   REMARKS
IRON MOUNTAIN  PTSUNNY   65  58  78 N3        30.00S
6HR MIN TEMP:  57; 6HR MAX TEMP:  65;

HOUGHTON       PTSUNNY   69  58  67 NW5       30.00R
6HR MIN TEMP:  63; 6HR MAX TEMP:  69;

COPPER HARBOR    N/A     67  59  75 CALM      30.00R
6HR MIN TEMP:  63; 6HR MAX TEMP:  74;

IRONWOOD       MOSUNNY   61  61 100 CALM      30.01R
6HR MIN TEMP:  55; 6HR MAX TEMP:  63;

$$

ABBREVIATIONS USED IN REMARKS
   TC - TEMPERATURE IN CELSIUS
  WCI - WIND CHILL INDEX
   HX - HEAT INDEX
  VSB - VISIBILITY





USA.gov is the U.S. government's official web portal to all federal, state and local government web resources and services.